Вернуться в каталог

ARIANE 5 R/B

АктивенHEO
NORAD 33276·ROCKET BODY·🇫🇷 France

Запущен Aug 14, 2008 с Guiana Space Centre

Loading…

Ближайшие Пролёты (ближайшие 24 часа)

TLE

СвежийSource: Space-Track

Эпоха: Sep 14, 2026, 12:44 UTC

1 33276U 08038C   26257.53074269  .00001937  00000-0  62068-3 0  9993
2 33276   2.4082  50.9923 7029647 263.1092  19.7974  2.59578055159092

Отслеживайте ARIANE 5 R/B в реальном времени с AllMySat

Download on the App Store